Helicity
79 52 33 -5 85 44 41 64 69 60 70 114 73 179 171 130 207 175 109 97 129 173 168 226 264 257 211 202 96 192 298 339 389 390 321 250 218 195 182 173 174 190 170 157
7 64 66 46 20 40 27 117 46 37 66 76 89 187 133 120 127 170 189 176 33 42 145 127 199 205 191 207 254 175 84 221 333 395 415 390 310 238 213 224 231 207 199 197
6 77 33 22 10 -1 40 38 27 68 81 3 150 64 126 111 71 88 154 171 166 211 93 194 174 159 206 159 162 193 189 351 174 227 343 395 404 355 276 232 254 243 213 230
47 84 12 92 186 75 25 81 11 39 40 216 139 151 148 144 109 85 116 70 97 129 165 158 171 221 217 183 155 148 163 169 213 353 343 214 342 379 372 342 283 257 236 231
47 118 109 85 158 134 154 120 85 69 208 52 169 167 181 111 104 107 115 64 14 16 45 95 153 151 119 131 130 143 156 117 118 155 227 215 298 211 353 381 366 326 293 289
49 53 107 82 198 85 129 198 231 236 267 104 51 180 165 179 128 113 115 82 17 8 22 51 87 75 74 97 93 108 139 158 120 64 137 180 235 251 175 354 369 408 531 499
104 50 53 39 101 127 260 172 209 219 238 222 308 200 173 172 194 116 97 112 52 37 28 35 48 40 38 47 69 66 60 68 96 104 56 134 185 215 333 465 626 666 677 662
118 85 7 38 76 160 167 231 268 356 283 278 296 235 265 216 184 155 136 97 32 -34 -34 -12 -2 -8 4 29 25 8 -9 7 32 66 94 88 207 300 325 460 636 736 764 789
121 94 93 145 182 241 247 249 272 290 318 253 268 250 206 175 153 140 81 28 2 -13 -13 -16 -19 -30 -36 -7 -2 3 -5 -3 -4 22 12 65 195 310 377 419 525 680 736 788
50 17 130 109 288 408 366 360 279 296 302 232 236 173 149 129 120 91 76 45 28 14 3 3 20 47 50 47 -10 -15 -18 15 21 49 95 100 53 53 228 402 383 612 706 813
60 180 378 302 393 420 380 304 258 298 307 194 126 122 90 74 64 49 49 59 59 67 68 82 77 82 99 102 75 71 80 76 79 82 116 148 206 193 167 98 70 196 365 432
45 72 239 349 332 275 247 235 237 131 158 144 88 69 58 37 33 61 90 100 131 178 206 213 215 214 210 194 172 145 134 100 82 85 76 67 123 184 388 329 365 327 260 169
147 56 32 78 104 92 96 104 131 147 74 70 67 64 84 69 68 96 135 194 234 233 244 255 265 230 224 209 180 170 141 131 106 121 108 111 122 121 147 247 368 381 359 340
59 -7 20 29 74 91 62 75 100 142 121 74 71 95 139 169 171 157 173 191 222 234 250 242 254 270 210 207 224 220 210 225 160 130 125 132 144 133 149 163 162 201 276 270
54 99 79 77 114 143 126 104 95 97 107 122 119 125 148 179 203 201 174 192 207 239 246 235 250 282 222 156 180 200 190 185 154 127 122 120 122 141 144 166 184 150 141 190
45 27 55 76 80 97 102 85 87 59 80 97 113 136 142 161 189 206 212 206 218 233 218 222 236 217 183 130 113 122 145 162 151 122 93 88 93 103 113 125 138 150 152 130
105 107 73 92 105 114 116 99 119 143 168 147 118 116 126 146 156 165 181 177 185 191 184 166 167 170 157 114 121 101 100 116 144 154 153 138 122 110 103 115 128 142 156 157
139 155 179 121 105 124 140 149 153 161 150 136 161 179 185 167 146 139 124 106 127 164 173 146 119 133 154 108 104 102 101 117 121 132 143 164 169 153 136 125 109 100 94 121
118 153 167 163 140 137 140 146 153 150 154 154 166 155 122 99 87 96 95 89 91 111 137 131 131 141 147 157 135 138 131 145 152 150 147 166 179 170 154 138 124 115 94 86
142 154 175 180 171 153 149 146 141 140 115 106 95 93 88 52 8 33 66 107 89 65 82 124 145 161 128 142 153 150 159 158 159 153 144 127 125 140 135 133 118 112 106 102
144 157 172 172 170 160 133 95 90 91 70 64 60 61 62 70 117 68 74 86 96 82 94 123 159 179 141 130 143 147 142 140 142 135 116 112 109 103 118 126 108 101 107 119
126 133 123 111 109 93 64 54 55 59 69 74 59 50 60 69 74 100 90 78 87 101 104 134 171 185 142 146 121 117 122 116 83 83 93 84 86 78 84 92 103 85 100 103
96 91 79 69 66 59 55 63 69 77 94 102 112 86 69 69 86 87 100 103 108 122 112 133 158 161 118 113 110 70 62 77 103 93 85 70 74 73 62 79 81 81 91 100
61 44 27 7 1 29 50 54 71 69 61 85 108 123 106 90 99 90 76 92 96 87 76 101 126 110 85 70 73 82 47 46 63 72 81 85 69 71 74 83 90 92 105 122
29 17 6 9 56 63 70 63 53 39 56 94 116 121 131 141 109 69 81 86 83 41 52 70 79 84 63 61 61 51 62 42 56 69 84 102 89 89 95 97 94 107 116 99
62 65 95 164 132 97 70 65 90 117 126 144 109 99 110 109 98 77 72 61 59 67 46 27 28 28 31 33 52 42 57 59 57 56 67 90 97 90 87 88 87 84 72 62
98 96 104 117 116 135 168 215 229 214 223 163 114 84 87 92 93 88 86 78 64 53 39 36 20 20 28 33 38 47 56 64 65 65 68 71 81 76 76 72 59 51 56 61
Wind_Speed
60 65 65 58 52 59 61 68 63 56 64 54 55 47 36 22 21 24 26 32 35 35 35 35 34 35 36 38 37 15 10 13 12 15 18 20 22 24 27 32 32 31 32 36
58 54 58 57 62 53 56 48 60 59 40 44 46 41 21 21 23 27 28 32 34 38 39 41 43 45 44 46 47 51 46 26 18 19 20 22 24 26 29 31 33 34 38 38
53 51 60 62 59 57 51 52 47 50 36 33 29 22 15 17 20 23 30 35 39 42 45 47 50 50 51 51 53 50 48 54 64 45 27 27 28 31 34 36 36 39 41 41
58 55 60 50 57 40 59 42 46 42 33 21 25 19 17 21 20 26 33 36 41 45 46 52 56 58 59 58 57 59 61 62 62 64 67 65 38 34 35 38 42 43 45 46
57 56 64 58 40 36 27 31 36 28 19 7 4 10 18 22 25 30 35 38 40 44 47 52 57 61 61 62 63 64 66 69 71 71 73 74 73 52 44 43 45 47 49 51
55 63 58 41 43 38 30 39 37 17 11 9 17 14 24 27 30 34 38 41 43 47 50 54 59 60 61 63 65 68 70 72 72 74 75 75 76 80 74 52 50 50 52 57
64 65 63 48 46 41 46 37 19 10 8 7 13 16 20 27 34 37 41 46 47 51 54 58 62 61 62 64 67 69 70 70 71 72 71 74 74 73 72 62 52 48 47 52
61 66 79 39 36 37 14 6 10 14 14 16 18 21 28 33 39 45 49 52 52 53 56 60 62 62 63 66 68 67 67 67 68 69 68 67 67 68 65 59 53 50 49 51
47 59 44 40 25 14 13 10 17 15 20 18 23 27 33 40 45 49 51 51 52 53 55 58 61 62 64 66 65 64 64 66 67 66 64 61 59 59 59 57 54 53 52 51
38 54 46 23 12 12 13 15 16 21 26 27 32 35 39 43 47 48 49 51 52 53 56 59 62 62 63 64 61 61 62 64 63 64 63 58 54 50 49 53 52 51 49 54
28 13 7 21 17 10 15 19 22 26 32 31 33 37 39 41 42 43 45 48 50 53 56 59 60 61 62 62 59 58 59 59 59 58 58 56 54 50 46 43 42 44 40 36
37 31 7 9 13 20 16 19 25 25 30 32 32 33 35 38 39 41 43 46 49 52 55 57 59 60 61 60 58 56 57 57 56 55 52 52 49 47 50 44 46 45 37 34
19 4 11 15 21 21 19 23 27 28 29 31 33 33 34 35 38 39 42 45 48 49 51 54 57 58 60 59 56 55 54 54 52 51 50 48 47 45 41 43 45 49 48 46
14 15 22 27 26 26 25 26 28 31 31 32 31 32 32 33 37 40 42 43 44 47 50 53 55 58 58 57 56 54 52 52 50 50 48 46 46 45 44 42 42 45 51 50
29 27 25 27 29 31 29 29 31 32 32 33 33 32 33 34 37 39 40 41 43 47 50 52 53 57 57 54 53 53 51 50 49 48 47 46 45 44 44 44 45 45 46 48
27 29 29 30 30 29 30 32 31 31 31 31 32 33 33 34 36 38 40 42 43 47 49 51 52 54 54 51 50 49 49 50 48 48 47 46 45 45 44 45 47 49 50 50
37 39 30 31 31 31 32 32 32 33 32 32 31 30 31 33 35 37 39 42 43 45 48 50 50 52 52 50 49 48 48 48 48 47 47 48 47 46 46 46 47 49 51 51
36 35 33 30 31 32 34 34 34 33 32 30 30 31 32 34 35 37 38 40 41 45 49 50 50 50 51 50 48 47 47 47 48 48 48 48 48 47 47 48 48 49 50 51
35 33 33 33 33 32 33 33 32 30 29 28 28 30 31 32 34 35 37 40 42 45 50 50 50 50 51 51 49 49 48 48 49 49 48 49 49 49 49 49 49 51 51 52
34 33 33 33 33 31 30 30 29 30 29 28 28 29 31 32 32 36 39 43 45 44 47 49 50 52 51 51 50 50 49 49 49 50 50 49 50 51 51 51 51 51 52 53
33 32 32 31 31 32 31 29 29 30 30 30 30 32 33 34 35 36 41 45 48 46 47 48 50 53 51 50 50 50 50 50 50 51 51 51 51 51 52 53 53 52 53 54
31 31 31 31 31 31 31 31 31 31 32 33 31 32 35 37 38 41 44 44 46 46 46 48 52 54 51 51 50 50 51 51 51 51 52 52 52 52 53 54 54 54 55 57
30 32 32 31 30 30 31 32 33 33 35 37 39 38 39 40 41 44 47 45 45 48 47 50 53 53 51 51 52 50 50 51 52 53 53 52 53 53 53 55 55 54 58 59
29 30 30 30 30 31 33 33 34 35 35 38 41 43 40 40 43 43 42 43 44 44 48 48 52 51 49 50 50 51 48 51 51 52 53 54 52 53 53 54 56 59 61 58
28 29 29 30 34 35 33 32 34 34 36 39 42 45 45 44 44 41 43 44 44 40 46 48 48 48 49 50 50 50 51 48 49 52 55 56 54 55 53 55 57 58 57 57
30 33 36 38 39 38 37 35 37 38 38 42 43 43 43 44 42 42 43 44 45 46 44 43 43 45 47 49 48 49 52 50 50 53 55 54 55 55 54 54 56 57 58 58
34 35 35 40 43 44 45 45 45 47 48 44 46 44 44 45 45 45 44 45 45 43 44 45 41 43 45 48 50 49 52 51 50 50 50 53 53 54 52 51 52 54 55 53
Wind_Direction
275 267 264 269 262 256 248 247 254 261 252 262 259 264 285 300 317 328 341 353 354 350 349 340 335 329 322 311 290 266 230 220 237 236 234 235 227 226 227 224 228 231 231 225
280 279 269 270 260 257 254 249 259 259 265 263 270 270 294 283 307 317 320 329 334 345 339 334 326 319 319 316 309 308 286 278 269 269 262 254 249 244 237 238 236 241 240 243
275 282 270 264 262 253 255 250 258 261 265 256 255 280 282 309 314 322 328 325 325 321 328 323 320 319 316 317 317 316 314 307 291 287 267 260 262 259 254 252 258 248 251 258
271 280 259 270 272 271 251 257 264 270 268 263 243 283 324 332 338 336 335 331 328 326 323 321 320 317 313 315 317 312 308 307 309 302 295 291 267 259 260 261 257 258 259 261
268 268 272 275 275 271 247 263 266 260 296 222 186 3 328 341 345 343 339 337 335 332 326 322 321 319 318 317 315 315 313 308 304 305 301 297 293 274 269 268 265 265 270 271
264 259 258 276 279 283 277 254 254 267 287 251 238 274 293 322 339 340 340 339 337 335 332 327 321 319 320 319 318 315 314 312 312 306 304 304 300 293 286 273 275 278 279 285
255 257 259 275 272 288 257 258 268 298 260 312 312 300 309 335 338 337 335 332 337 336 330 325 324 324 324 323 322 319 318 317 316 315 310 306 305 305 299 293 284 284 285 292
252 252 249 269 282 278 260 255 291 293 297 294 323 321 322 326 326 325 331 330 332 330 330 331 329 327 324 324 324 325 326 324 322 320 319 316 311 309 308 300 293 291 290 294
254 252 267 276 265 264 271 284 288 302 316 330 333 329 326 322 326 330 332 333 333 333 332 333 333 334 328 327 328 329 331 333 332 328 325 324 322 315 312 309 302 297 296 295
270 259 247 273 268 272 298 311 316 316 315 322 317 321 324 325 327 327 329 329 330 332 333 333 335 336 336 336 338 339 339 338 339 342 339 333 333 332 326 318 312 307 304 304
262 307 244 267 276 279 306 315 319 321 321 326 325 324 326 327 328 327 328 330 333 335 335 336 338 339 340 340 342 344 347 347 346 349 351 354 356 348 348 350 337 323 322 321
247 255 59 285 314 324 331 332 329 330 330 331 330 328 326 325 326 330 332 335 338 340 340 340 342 343 345 347 349 349 347 347 348 348 350 351 351 355 5 4 11 3 354 351
237 301 16 310 2 350 340 339 334 336 335 331 329 329 330 333 337 340 341 342 344 345 346 347 348 350 352 352 355 354 353 352 352 355 355 356 354 353 349 354 5 10 4 5
309 331 304 297 316 337 339 342 342 336 334 336 342 345 343 344 346 345 346 347 350 351 350 350 350 350 353 355 355 355 355 355 352 351 353 354 355 351 347 344 341 344 2 9
318 332 323 337 342 333 340 341 342 341 341 343 347 349 349 349 347 346 348 351 353 353 352 352 351 349 350 355 355 354 354 352 352 352 350 349 348 348 348 346 347 346 351 353
336 341 339 334 340 342 341 344 346 348 351 350 351 352 354 354 353 352 352 352 351 349 350 352 352 349 348 351 353 354 353 354 354 352 349 347 347 346 344 344 345 345 345 344
314 317 324 328 335 336 341 344 345 346 348 350 353 355 356 355 355 355 355 354 354 353 351 349 348 348 349 351 353 353 353 353 352 355 351 346 344 343 345 345 343 342 343 345
326 325 327 333 335 336 339 343 345 345 345 349 352 353 354 353 352 353 355 355 354 352 350 352 353 351 351 351 354 355 354 352 350 352 352 349 346 347 347 346 344 342 342 344
336 337 340 343 345 346 346 347 350 353 355 358 360 360 1 1 0 360 357 353 350 349 349 351 352 353 353 353 353 353 353 352 351 351 350 349 348 348 346 345 345 344 344 343
345 348 350 352 354 358 360 2 9 12 13 12 12 7 2 0 2 360 358 352 353 353 351 349 349 350 351 352 352 352 352 351 349 347 347 347 346 345 345 345 345 344 343 342
358 1 4 9 11 13 14 15 17 16 16 17 13 7 2 359 357 355 350 344 347 350 349 349 350 348 350 352 352 352 351 350 348 346 346 345 345 345 344 343 342 342 341 340
14 18 21 20 21 21 20 20 18 14 10 6 7 7 2 357 356 354 353 348 347 349 349 349 347 347 349 350 350 350 349 348 347 347 346 345 344 343 342 341 341 341 340 340
27 33 31 28 23 18 14 10 7 3 359 356 355 356 353 350 347 340 337 345 348 348 347 345 345 346 348 348 348 348 348 346 346 345 345 345 344 343 340 339 339 340 337 336
31 33 30 28 25 13 2 6 5 4 1 355 355 353 348 348 348 350 350 346 344 347 347 345 345 346 348 348 347 347 348 347 346 345 343 343 343 342 340 339 338 336 335 336
25 22 21 17 3 359 2 1 358 356 354 352 350 348 347 345 340 344 345 344 346 343 344 346 346 347 347 346 347 347 346 347 348 346 341 340 341 341 342 341 340 340 340 339
13 5 6 4 359 356 352 351 347 349 346 343 346 348 347 346 344 342 341 341 341 342 344 345 347 348 349 348 346 346 345 344 344 343 343 342 341 342 343 343 343 343 341 340
7 3 2 354 350 347 347 346 342 340 341 339 337 340 341 341 341 340 342 342 343 344 345 346 348 348 347 346 344 345 344 345 346 346 346 346 344 344 345 346 346 346 345 344